FW3284 Weather Reports


Display with metric or nautical units.
time (UTC)temp
F
wind
direction
speed
MPH
gust
MPH
rain 1hr
in
rain 24hr
in
rain mn
in
humidity
%
barometer
mb
20260902061516 81 213 0.0 5.0 0.00 0.00 0.00 60 1014.5
20260902060121 82 189 0.0 7.0 0.00 0.00 0.00 59 1014.5
20260902054541 82 169 1.0 4.0 0.00 0.00 0.00 58 1014.4
20260902053022 82 238 1.0 5.0 0.00 0.00 0.00 58 1014.3
20260902051508 83 291 1.0 8.0 0.00 0.00 0.00 57 1014.3
20260902050042 83 216 2.0 9.0 0.00 0.00 0.00 56 1014.3
20260902044529 84 144 1.0 5.0 0.00 0.00 0.00 56 1014.2
20260902043011 84 137 1.0 5.0 0.00 0.00 0.00 55 1014.1
20260902041603 84 243 0.0 6.0 0.00 0.00 0.00 55 1014.0
20260902040028 83 150 0.0 4.0 0.00 0.00 0.00 56 1014.0
20260902034509 80 306 0.0 3.0 0.00 0.00 0.00 62 1014.0
20260902033054 80 114 0.0 2.0 0.00 0.00 0.00 65 1013.9
20260902031532 81 124 0.0 2.0 0.00 0.00 0.00 61 1013.9
20260902030018 81 354 0.0 2.0 0.00 0.00 0.00 62 1013.8
20260902024502 81 125 0.0 1.0 0.00 0.00 0.00 62 1013.7
20260902023043 82 125 0.0 1.0 0.00 0.00 0.00 61 1013.5
20260902021526 82 125 0.0 1.0 0.00 0.00 0.00 61 1013.3
20260902020048 83 118 1.0 3.0 0.00 0.00 0.00 60 1013.0
20260902014541 83 153 0.0 2.0 0.00 0.00 0.00 59 1012.8
20260902013019 84 129 0.0 0.0 0.00 0.00 0.00 58 1012.8
20260902011600 85 129 0.0 2.0 0.00 0.00 0.00 56 1012.7
20260902011505 85 129 0.0 2.0 0.00 0.00 0.00 55 1012.7
20260902010036 87 129 0.0 2.0 0.00 0.00 0.00 53 1012.7
20260902004518 88 150 0.0 2.0 0.00 0.00 0.00 52 1012.7
20260902003058 89 150 0.0 1.0 0.00 0.00 0.00 50 1012.8
20260902001534 91 150 0.0 2.0 0.00 0.00 0.00 48 1012.9
20260902000014 91 143 0.0 2.0 0.00 0.00 0.00 46 1013.0
20260901234552 92 150 0.0 3.0 0.00 0.00 0.00 45 1013.0
20260901233038 93 143 0.0 2.0 0.00 0.00 0.00 44 1013.2
20260901231525 94 262 1.0 4.0 0.00 0.00 0.00 42 1013.2
20260901230004 94 135 2.0 5.0 0.00 0.00 0.00 42 1013.2
20260901224547 95 105 0.0 4.0 0.00 0.00 0.00 42 1013.1
20260901223025 95 100 5.0 9.0 0.00 0.00 0.00 42 1013.1
20260901221511 98 124 2.0 4.0 0.00 0.00 0.00 40 1013.1
20260901220111 98 150 0.0 4.0 0.00 0.00 0.00 39 1013.1
20260901214534 98 141 2.0 9.0 0.00 0.00 0.00 40 1013.1
20260901213056 99 147 1.0 6.0 0.00 0.00 0.00 40 1013.3
20260901211558 98 173 0.0 3.0 0.00 0.00 0.00 38 1013.4
20260901210047 98 114 2.0 5.0 0.00 0.00 0.00 38 1013.6
20260901204514 98 134 1.0 8.0 0.00 0.00 0.00 39 1013.8
20260901203109 98 137 2.0 6.0 0.00 0.00 0.00 40 1013.9
20260901203002 98 128 3.0 6.0 0.00 0.00 0.00 40 1013.9
20260901201536 99 240 2.0 5.0 0.00 0.00 0.00 35 1014.2
20260901200019 99 226 1.0 5.0 0.00 0.00 0.00 36 1014.2
20260901194555 98 326 0.0 6.0 0.00 0.00 0.00 36 1014.3
20260901194502 98 287 0.0 6.0 0.00 0.00 0.00 36 1014.4
20260901193046 98 307 0.0 7.0 0.00 0.00 0.00 38 1014.4
20260901191521 97 58 0.0 7.0 0.00 0.00 0.00 39 1014.6
20260901184540 96 193 2.0 6.0 0.00 0.00 0.00 41 1015.0
20260901183025 97 202 1.0 6.0 0.00 0.00 0.00 42 1015.1
20260901181557 96 241 3.0 6.0 0.00 0.00 0.00 43 1015.4
20260901180033 94 290 1.0 10.0 0.00 0.00 0.00 45 1015.6
20260901174519 95 258 1.0 4.0 0.00 0.00 0.00 44 1015.8
20260901173103 93 228 1.0 5.0 0.00 0.00 0.00 46 1016.1
20260901171536 92 257 3.0 8.0 0.00 0.00 0.00 47 1016.3
20260901170015 91 235 3.0 9.0 0.00 0.00 0.00 49 1016.4
20260901164600 91 235 3.0 10.0 0.00 0.00 0.00 51 1016.5
20260901163040 90 247 3.0 10.0 0.00 0.00 0.00 52 1016.7
20260901161524 90 269 3.0 7.0 0.00 0.00 0.00 52 1016.7
20260901160006 89 235 0.0 9.0 0.00 0.00 0.00 53 1016.7
20260901154547 88 227 3.0 8.0 0.00 0.00 0.00 54 1016.7
20260901153030 87 280 2.0 10.0 0.00 0.00 0.00 56 1016.7
20260901151511 88 231 2.0 9.0 0.00 0.00 0.00 56 1016.8
20260901150043 86 250 1.0 8.0 0.00 0.00 0.00 59 1016.8
20260901144524 84 252 3.0 8.0 0.00 0.00 0.00 60 1016.8
20260901143003 83 234 3.0 8.0 0.00 0.00 0.00 62 1016.8
20260901141546 83 217 1.0 5.0 0.00 0.00 0.00 63 1016.9
20260901140042 83 224 1.0 8.0 0.00 0.00 0.00 62 1016.9
20260901134507 83 248 2.0 6.0 0.00 0.00 0.00 62 1016.9
20260901133050 82 150 0.0 0.0 0.00 0.00 0.00 63 1016.8
20260901131520 81 139 0.0 0.0 0.00 0.00 0.00 66 1016.8
20260901130059 78 219 0.0 0.0 0.00 0.00 0.00 69 1016.8
20260901124539 77 200 0.0 0.0 0.00 0.00 0.00 70 1016.7
20260901123018 77 184 0.0 0.0 0.00 0.00 0.00 70 1016.5
20260901121544 77 190 0.0 0.0 0.00 0.00 0.00 69 1016.3
20260901120041 76 212 0.0 0.0 0.00 0.00 0.00 70 1016.1
20260901114506 76 164 0.0 0.0 0.00 0.00 0.00 70 1015.9
20260901113047 76 114 0.0 0.0 0.00 0.00 0.00 70 1015.8
20260901111516 76 205 0.0 0.0 0.00 0.00 0.00 71 1015.6
20260901110048 75 286 0.0 0.0 0.00 0.00 0.00 71 1015.6
20260901104527 75 188 0.0 0.0 0.00 0.00 0.00 70 1015.6
20260901103002 75 204 0.0 0.0 0.00 0.00 0.00 71 1015.6
20260901101543 74 147 0.0 0.0 0.00 0.00 0.00 72 1015.5
20260901100031 74 148 0.0 0.0 0.00 0.00 0.00 72 1015.5
20260901094505 74 141 0.0 0.0 0.00 0.00 0.00 72 1015.5
20260901093045 74 176 0.0 0.0 0.00 0.00 0.00 70 1015.4
20260901091522 74 171 0.0 0.0 0.00 0.00 0.00 70 1015.3
20260901090010 75 179 0.0 0.0 0.00 0.00 0.00 69 1015.2
20260901084541 75 158 0.0 0.0 0.00 0.00 0.00 68 1015.2
20260901083023 76 170 0.0 0.0 0.00 0.00 0.00 66 1015.2
20260901081600 77 165 0.0 0.0 0.00 0.00 0.00 65 1015.1
20260901081505 77 165 0.0 0.0 0.00 0.00 0.00 65 1015.1
20260901080037 77 166 0.0 0.0 0.00 0.00 0.00 65 1015.1
20260901074516 77 144 0.0 2.0 0.00 0.00 0.00 65 1015.0
20260901073050 77 142 0.0 0.0 0.00 0.00 0.00 64 1015.1
20260901071531 77 214 0.0 0.0 0.00 0.00 0.00 64 1015.0
20260901070104 77 156 0.0 2.0 0.00 0.00 0.00 65 1015.0
20260901070003 77 156 0.0 2.0 0.00 0.00 0.00 65 1015.0
20260901064543 76 273 0.0 2.0 0.00 0.00 0.00 65 1015.0
20260901063021 76 122 0.0 3.0 0.00 0.00 0.00 65 1015.1